Back to catalog

KUIPER-00516

AliveCommunicationsVLEO
NORAD 69599·PAYLOAD·🇺🇸 United States

Launched Jun 17, 2026 from Guiana Space Centre

Loading…

Next Passes (next 24 hours)

TLE

FreshSource: CelesTrak SupGP

Epoch: Sep 14, 2026, 16:15 UTC

1 69599C 26140H   26257.67710648 -.01265700  00000+0 -58730-1 0  2575
2 69599  51.8823 326.6707 0006739 195.0255 125.9781 15.20738361    10

Track KUIPER-00516 in real time with AllMySat

Download on the App Store